sat.trackr.live / text

‹ back to catalog

STARLINK-31813

NORAD 60128 · 2024-118R

PAYLOAD ACTIVE UNKNOWN

§ Identity

Operator
Country
US
Launch date
2024-06-24
Launch site
AFWTR
Launch vehicle
Mass (kg)
RCS (m²)

Purposes: comms

External: N2YO · Heavens-Above · Gunter

§ Orbital elements

Epoch: 2026-09-21T06:35:08.177280Z

Period
94.01 min
Inclination
53.1585°
Eccentricity
0.0001486
Mean motion
15.31697673 rev/d
Perigee alt
469.7 km
Apogee alt
471.8 km
Semi-major
6,848.9 km
B*
7.5631e-5
RAAN
196.6669°
Arg perigee
74.1799°
Mean anomaly
285.9367°
Rev number
12,566

§ Raw data

STARLINK-318131 60128U 24118R   26264.27440020  .00001982  00000+0  75631-4 0  99972 60128  53.1585 196.6669 0001486  74.1799 285.9367 15.31697673125663

JSON: /api/v1/satellites/60128 · /tle

For live sub-satellite position, see the globe view (requires WebGL).

§ Visibility from observer

Set your observer location to see the next 7 days of passes ≥ 10°. The values pass through the URL so the page stays shareable.

No JS? Fill the form by hand. The geolocation button needs JavaScript.